Regional Weather Roundup
Issued by NWS Albany, NY

Home | Current Version | Previous Version | Text Only | Print | Product List | Glossary On
Versions: 1 2 3 4 5 6 7 8 9 10 11 12 13 14 15 16 17 18 19 20 21 22 23 24 25 26 27
000
ASUS41 KALY 152310
RWRALY

NEW YORK STATE HOURLY WEATHER ROUNDUP
NATIONAL WEATHER SERVICE ALBANY NY
700 PM EDT TUE APR 15 2014

NOTE: "FAIR" INDICATES FEW OR NO CLOUDS BELOW 12,000 FEET WITH NO
SIGNIFICANT WEATHER AND/OR NO OBSTRUCTIONS TO VISIBILITY.

NYZ032-033-038>043-046>054-057>066-NYZ062>081-160000-
EAST


CITY           SKY/WX    TMP DP  RH WIND       PRES   REMARKS
ALBANY         LGTSLEET  35  30  82 NW15G26   29.78S WCI  25
GLENS FALLS    LGT RAIN  40  36  86 W10       29.73R WCI  33
POUGHKEEPSIE   LGT RAIN  46  43  89 N12G20    29.70R FOG
NEWBURGH       LGT RAIN  45  43  93 NW12      29.70R FOG
MONTGOMERY     RAIN      44  38  79 NW16G24   29.70R
WHITE PLAINS   LGT RAIN  47  44  90 NW23G33   29.65R FOG
ISLIP          LGT RAIN  55  54  94 SW21G33   29.61R VSB 1
NEW YORK CITY  RAIN      47  41  80 NW23G29   29.67R
CENTRAL PARK   LGT RAIN  47  43  86 NW12G21   29.70R
$$

NYZ005>009-017-018-044>046-055-056-160000-
CENTRAL


CITY           SKY/WX    TMP DP  RH WIND       PRES   REMARKS
FULTON         CLOUDY    30  21  69 W14G36    29.89R WCI  19
SYRACUSE       FLURRIES  29  28  96 W20G28    29.88R WCI  16
ROME           MIX PCPN  30  25  81 W21G26    29.88R WCI  17
ELMIRA         LGT SNOW  32  25  74 NW15G25   29.86F WCI  22
BINGHAMTON     LGT SNOW  30  28  92 NW12      29.79R FOG     WCI  20
MONTICELLO     CLOUDY    34  30  86 NW17G23   29.75R WCI  23
$$

NYZ026>034-041>043-160000-
NORTH


CITY           SKY/WX    TMP DP  RH WIND       PRES   REMARKS
WATERTOWN      CLOUDY    32  24  72 W21G30    29.86R WCI  20
FORT DRUM      NOT AVBL
MASSENA        CLOUDY    27  22  81 W13G23    29.81R WCI  16
SARANAC LAKE   LGT SNOW  29  27  92 W10G18    29.67R FOG     WCI  20
PLATTSBURGH    LGT SNOW  34  32  92 W5        29.74R FOG     WCI  30
$$

NYZ001>004-010>016-019>021-160000-
WEST


CITY           SKY/WX    TMP DP  RH WIND       PRES   REMARKS
NIAGARA FALLS  FLURRIES  29  18  63 W18G32    30.00R WCI  16
BUFFALO        CLOUDY    29  19  66 W16G23    29.97R WCI  17
DUNKIRK        CLOUDY    29  19  66 W14G23    30.03R WCI  18
JAMESTOWN      CLOUDY    25  19  80 CALM      29.95S
WELLSVILLE     FLURRIES  26  19  74 NW20G32   29.84R WCI  12
ROCHESTER      CLOUDY    31  21  66 W14G30    29.96R WCI  21
PENN YAN       LGT SNOW  31  25  78 NW10G20   29.89R WCI  22
$$

             KEY
       WCI = WIND CHILL INDEX
       VSB = VISIBILITY
       HX  = HEAT INDEX
$$



USA.gov is the U.S. government's official web portal to all federal, state and local government web resources and services.